When you browse on this site, cookies collect data to enhance your experience and personalize the content and advertising you see.
Visit our Privacy Policy to learn more. By continuing to use the site, you agree to this use of cookies and data.
  • In Romania
  • List of Countries
  • For 7 days
  • Water Temperature
  • Satellite Maps
  • Weather Map
  • Weather Widgets
  • user-avatar
    Login

    Hourly Weather La Paz

    Today, 22 April, Monday

    Time Temperature Precipitation Wind Pressure Humidity
    00:00 +9°C° 0.7 mm 1 mps 474 mmHg 80%
    01:00 +7°C° 0 mm 0 mps 474 mmHg 81%
    02:00 +7°C° 0.1 mm 0 mps 473 mmHg 82%
    03:00 +6°C° 0.1 mm 0 mps 473 mmHg 82%
    04:00 +7°C° 0.1 mm 1 mps 472 mmHg 83%
    05:00 +8°C° 0 mm 1 mps 473 mmHg 77%
    06:00 +8°C° 0 mm 1 mps 474 mmHg 71%
    07:00 +9°C° 0 mm 1 mps 475 mmHg 65%
    08:00 +11°C° 0 mm 1 mps 476 mmHg 59%
    09:00 +12°C° 0 mm 1 mps 476 mmHg 53%
    10:00 +13°C° 0 mm 1 mps 477 mmHg 47%
    11:00 +14°C° 0.6 mm 1 mps 477 mmHg 48%
    12:00 +14°C° 0.6 mm 1 mps 476 mmHg 49%
    13:00 +15°C° 0.6 mm 1 mps 476 mmHg 49%
    14:00 +14°C° 0.9 mm 2 mps 476 mmHg 51%
    15:00 +14°C° 0.9 mm 2 mps 475 mmHg 52%
    16:00 +14°C° 0.9 mm 2 mps 475 mmHg 53%
    17:00 +13°C° 0.5 mm 2 mps 474 mmHg 62%
    18:00 +10°C° 0.5 mm 3 mps 474 mmHg 71%
    19:00 +9°C° 0.5 mm 3 mps 474 mmHg 81%
    20:00 +9°C° 0.1 mm 3 mps 474 mmHg 82%
    21:00 +8°C° 0.1 mm 3 mps 474 mmHg 84%
    22:00 +8°C° 0.1 mm 2 mps 475 mmHg 86%
    23:00 +8°C° 0.1 mm 2 mps 474 mmHg 87%

    Tomorrow, 23 April, Tuesday

    Time Temperature Precipitation Wind Pressure Humidity
    00:00 +8°C° 0.1 mm 2 mps 474 mmHg 88%
    01:00 +7°C° 0.1 mm 2 mps 474 mmHg 88%
    02:00 +7°C° 0 mm 2 mps 474 mmHg 89%
    03:00 +8°C° 0 mm 1 mps 473 mmHg 89%
    04:00 +7°C° 0 mm 1 mps 473 mmHg 90%
    05:00 +8°C° 0.1 mm 1 mps 474 mmHg 87%
    06:00 +7°C° 0.1 mm 2 mps 474 mmHg 84%
    07:00 +8°C° 0.1 mm 2 mps 475 mmHg 81%
    08:00 +9°C° 0.1 mm 3 mps 475 mmHg 76%
    09:00 +10°C° 0.1 mm 3 mps 476 mmHg 71%
    10:00 +11°C° 0.1 mm 4 mps 477 mmHg 65%
    11:00 +11°C° 0.2 mm 4 mps 476 mmHg 65%
    12:00 +11°C° 0.2 mm 4 mps 476 mmHg 65%
    13:00 +11°C° 0.2 mm 4 mps 475 mmHg 65%
    14:00 +11°C° 0.2 mm 4 mps 475 mmHg 66%
    15:00 +11°C° 0.2 mm 4 mps 474 mmHg 67%
    16:00 +11°C° 0.2 mm 4 mps 474 mmHg 68%
    17:00 +10°C° 0.1 mm 4 mps 474 mmHg 74%
    18:00 +8°C° 0.1 mm 4 mps 474 mmHg 80%
    19:00 +7°C° 0.1 mm 4 mps 474 mmHg 86%
    20:00 +7°C° 0.1 mm 3 mps 474 mmHg 87%
    21:00 +7°C° 0.1 mm 3 mps 474 mmHg 88%
    22:00 +7°C° 0.1 mm 3 mps 475 mmHg 89%
    23:00 +6°C° 0.6 mm 2 mps 474 mmHg 89%

    Day after tomorrow, 24 April, Wednesday

    Time Temperature Precipitation Wind Pressure Humidity
    00:00 +6°C° 0.6 mm 2 mps 474 mmHg 90%
    01:00 +7°C° 0.6 mm 1 mps 474 mmHg 91%
    02:00 +7°C° 2.5 mm 1 mps 474 mmHg 91%
    03:00 +7°C° 2.5 mm 1 mps 474 mmHg 91%
    04:00 +7°C° 2.5 mm 1 mps 474 mmHg 91%
    05:00 +7°C° 1.2 mm 1 mps 474 mmHg 90%
    06:00 +7°C° 1.2 mm 1 mps 474 mmHg 90%
    07:00 +7°C° 1.2 mm 1 mps 475 mmHg 89%
    08:00 +8°C° 0.8 mm 1 mps 475 mmHg 84%
    09:00 +8°C° 0.8 mm 2 mps 476 mmHg 79%
    10:00 +9°C° 0.8 mm 2 mps 477 mmHg 73%
    11:00 +9°C° 0.7 mm 2 mps 477 mmHg 72%
    12:00 +10°C° 0.7 mm 2 mps 476 mmHg 70%
    13:00 +10°C° 0.7 mm 3 mps 476 mmHg 69%
    14:00 +10°C° 0.2 mm 3 mps 475 mmHg 69%
    15:00 +10°C° 0.2 mm 3 mps 475 mmHg 70%
    16:00 +10°C° 0.2 mm 3 mps 475 mmHg 71%
    17:00 +9°C° 0.1 mm 3 mps 475 mmHg 77%
    18:00 +8°C° 0.1 mm 3 mps 474 mmHg 83%
    19:00 +7°C° 0.1 mm 3 mps 474 mmHg 89%
    20:00 +7°C° 0.1 mm 3 mps 475 mmHg 90%
    21:00 +7°C° 0.1 mm 3 mps 475 mmHg 91%
    22:00 +7°C° 0.1 mm 3 mps 475 mmHg 92%
    23:00 +5°C° 0.1 mm 3 mps 475 mmHg 92%

    25 April, Thursday

    Time Temperature Precipitation Wind Pressure Humidity
    00:00 +6°C° 0.1 mm 2 mps 475 mmHg 92%
    01:00 +6°C° 0.1 mm 2 mps 474 mmHg 92%
    02:00 +6°C° 0.1 mm 2 mps 474 mmHg 92%
    03:00 +6°C° 0.1 mm 1 mps 474 mmHg 92%
    04:00 +6°C° 0.1 mm 1 mps 474 mmHg 92%
    05:00 +7°C° 0.2 mm 1 mps 474 mmHg 90%
    06:00 +7°C° 0.2 mm 1 mps 475 mmHg 89%
    07:00 +6°C° 0.2 mm 2 mps 476 mmHg 87%
    08:00 +7°C° 0.5 mm 2 mps 476 mmHg 82%
    09:00 +8°C° 0.5 mm 2 mps 477 mmHg 77%
    10:00 +9°C° 0.5 mm 3 mps 477 mmHg 73%
    11:00 +10°C° 0.5 mm 3 mps 477 mmHg 71%
    12:00 +10°C° 0.5 mm 3 mps 477 mmHg 70%
    13:00 +11°C° 0.5 mm 3 mps 476 mmHg 68%
    14:00 +10°C° 0.4 mm 3 mps 476 mmHg 70%
    15:00 +10°C° 0.4 mm 3 mps 476 mmHg 73%
    16:00 +10°C° 0.4 mm 3 mps 475 mmHg 75%
    17:00 +9°C° 0.2 mm 3 mps 475 mmHg 79%
    18:00 +8°C° 0.2 mm 3 mps 475 mmHg 83%
    19:00 +7°C° 0.2 mm 3 mps 475 mmHg 87%
    20:00 +7°C° 0.1 mm 3 mps 476 mmHg 88%
    21:00 +7°C° 0.1 mm 2 mps 476 mmHg 89%
    22:00 +7°C° 0.1 mm 2 mps 476 mmHg 90%
    23:00 +7°C° 0.2 mm 1 mps 475 mmHg 90%

    26 April, Friday

    Time Temperature Precipitation Wind Pressure Humidity
    00:00 +7°C° 0.2 mm 1 mps 475 mmHg 90%
    01:00 +7°C° 0.2 mm 1 mps 475 mmHg 90%
    02:00 +7°C° 0.7 mm 1 mps 474 mmHg 90%
    03:00 +7°C° 0.7 mm 1 mps 474 mmHg 90%
    04:00 +7°C° 0.7 mm 1 mps 474 mmHg 90%
    05:00 +7°C° 0.9 mm 1 mps 475 mmHg 88%
    06:00 +7°C° 0.9 mm 1 mps 475 mmHg 87%
    07:00 +7°C° 0.9 mm 1 mps 476 mmHg 86%
    08:00 +7°C° 0.6 mm 2 mps 476 mmHg 81%
    09:00 +8°C° 0.6 mm 2 mps 476 mmHg 77%
    10:00 +9°C° 0.6 mm 2 mps 477 mmHg 72%
    11:00 +10°C° 0.6 mm 2 mps 477 mmHg 70%
    12:00 +10°C° 0.6 mm 2 mps 476 mmHg 68%
    13:00 +12°C° 0.6 mm 2 mps 476 mmHg 66%
    14:00 +12°C° 0.5 mm 2 mps 476 mmHg 67%
    15:00 +10°C° 0.5 mm 2 mps 475 mmHg 68%
    16:00 +10°C° 0.5 mm 2 mps 475 mmHg 70%
    17:00 +9°C° 0.1 mm 2 mps 475 mmHg 74%
    18:00 +9°C° 0.1 mm 2 mps 475 mmHg 79%
    19:00 +8°C° 0.1 mm 2 mps 475 mmHg 83%
    20:00 +8°C° 0 mm 2 mps 475 mmHg 84%
    21:00 +8°C° 0 mm 1 mps 475 mmHg 86%
    22:00 +8°C° 0 mm 1 mps 475 mmHg 87%
    23:00 +8°C° 0 mm 1 mps 475 mmHg 88%

    27 April, Saturday

    Time Temperature Precipitation Wind Pressure Humidity
    00:00 +7°C° 0 mm 1 mps 474 mmHg 89%
    01:00 +7°C° 0 mm 1 mps 474 mmHg 90%
    02:00 +5°C° 0 mm 0 mps 473 mmHg 91%
    03:00 +5°C° 0 mm 0 mps 473 mmHg 91%
    04:00 +4°C° 0 mm 0 mps 472 mmHg 92%
    05:00 +5°C° 0 mm 0 mps 473 mmHg 86%
    06:00 +6°C° 0 mm 0 mps 474 mmHg 81%
    07:00 +6°C° 0 mm 0 mps 475 mmHg 76%
    08:00 +9°C° 0 mm 1 mps 476 mmHg 68%
    09:00 +11°C° 0 mm 1 mps 477 mmHg 60%
    10:00 +12°C° 0 mm 1 mps 477 mmHg 52%
    11:00 +12°C° 0 mm 1 mps 477 mmHg 51%
    12:00 +13°C° 0 mm 1 mps 476 mmHg 51%
    13:00 +13°C° 0 mm 1 mps 476 mmHg 50%
    14:00 +13°C° 0 mm 2 mps 476 mmHg 51%
    15:00 +13°C° 0 mm 2 mps 475 mmHg 52%
    16:00 +13°C° 0 mm 2 mps 475 mmHg 53%
    17:00 +10°C° 0 mm 2 mps 475 mmHg 63%
    18:00 +9°C° 0 mm 3 mps 475 mmHg 73%
    19:00 +8°C° 0 mm 3 mps 474 mmHg 84%
    20:00 +8°C° 0 mm 3 mps 474 mmHg 86%
    21:00 +7°C° 0 mm 3 mps 475 mmHg 89%
    22:00 +7°C° 0 mm 2 mps 475 mmHg 92%
    23:00 +7°C° 0 mm 2 mps 474 mmHg 92%
    Show more